Regional Weather Roundup
Issued by NWS

Home | Current Version | Previous Version | Text Only | Print | Product List | Glossary Off
Versions: 1 2 3 4 5 6 7 8 9 10 11 12 13 14 15 16 17 18 19 20 21 22 23 24 25 26 27 28 29 30 31 32 33 34 35 36 37 38 39 40 41 42 43 44 45 46 47 48 49 50

000
ASUS45 KTFX 151819
RWRMT
MONTANA HOURLY WEATHER ROUNDUP
NATIONAL WEATHER SERVICE GREAT FALLS MT
1219 PM MDT TUE APR 15 2014

NOTE: "FAIR" INDICATES FEW OR NO CLOUDS BELOW 12000 FEET WITH NO
SIGNIFICANT WEATHER AND/OR OBSTRUCTIONS TO VISIBILITY.

* THESE STATIONS ARE NOT UNDER NWS QUALITY CONTROL. THEY DO NOT
   REPORT WEATHER SUCH AS PRECIPITATION OR FOG.

MTZ001>007-043-151900-
WEST OF THE DIVIDE
CITY           SKY/WX    TMP DP  RH WIND       PRES   REMARKS
KALISPELL      CLOUDY    50  27  41 W7        29.77R
MISSOULA       CLOUDY    46  28  50 W13G23    29.86R
BUTTE          CLOUDY    43  27  53 NW18G26   29.77F
MULLAN PASS    SNOW      28  27  96 VRB7      29.84R VSB M1/4 WCI  21
* ESSEX        N/A       41  32  70 VRB2       N/A
* LINCOLN      N/A       45  25  45 SW8G20     N/A
* LOOKOUT PASS N/A       32  31  96 VRB4       N/A
* PLAINS APT   CLOUDY    48  30  50 W13G28    29.88R
* POLSON       N/A       45  28  51 W2G7       N/A
* SEELEY LAKE  N/A       39  32  76 NW8G16     N/A   WCI  33
* THOMP F APT  CLOUDY    39  13  34 S8         N/A   WCI  33
$$

MTZ008-052>055-151900-
SOUTHWEST MONTANA
CITY           SKY/WX    TMP DP  RH WIND       PRES   REMARKS
BOZEMAN        CLOUDY    50  21  32 CALM      29.74S
DILLON         CLOUDY    54  16  22 W25G32    29.73F
W YELLOWSTONE  N/A       40  16  38 SW4G15     N/A
* THREE FORKS  CLOUDY    54  25  33 SW7        N/A
* BOULDER HILL N/A       41  19  41 NW3G8      N/A
* MONIDA PASS  N/A       37  13  37 SE23       N/A   WCI  26
* RAYNOLDS PAS N/A       37  22  55 S12G20     N/A   WCI  29
* WHITEHALL    N/A       53  22  30 W16G25     N/A
* WISE RIVER   N/A       45  21  38 NW17G29    N/A
$$

MTZ009>010-012-014-046-048-049-054-151900-
EAST SLOPES AND CENTRAL MONTANA
CITY           SKY/WX    TMP DP  RH WIND       PRES   REMARKS
CUT BANK       CLOUDY    48  25  41 W30       29.66S
GREAT FALLS    CLOUDY    50  27  41 W24G33    29.69S
HELENA         CLOUDY    52  28  40 W21G28    29.75S
MALMSTROM AFB  CLOUDY    52  25  35 SW16G24   29.66S
* CONRAD       CLOUDY    52  27  38 W21G26     N/A
* DEARBORN     N/A       52  24  34 S16G24     N/A
* EAST GLACIER N/A       38  29  70 W17        N/A   WCI  29
* MONARCH      N/A       42  15  33 W19G26     N/A
* PENDROY      N/A       46  24  42 W16G21     N/A
* ROGERS PASS  N/A       41  23  49 SE4G14     N/A
* SAINT MARY   N/A       40  22  49 S11G23     N/A   WCI  33
* SWEET GRASS  N/A       52  16  24 NW20G35    N/A
* WHITE SULPH  N/A       43  26  51 SW6G29     N/A
$$

MTZ011-013-016-021-035-040-045-047-050-051-151900-
NORTH CENTRAL MONTANA
CITY           SKY/WX    TMP DP  RH WIND       PRES   REMARKS
HAVRE          CLOUDY    59  18  20 NW24G29   29.58S
LEWISTOWN      CLOUDY    52  23  32 NW12      29.65F
* FORT BENTON  CLOUDY    57  25  29 SW24G31   29.65S
* MALTA APT    CLOUDY    54  25  33 SW6       29.57F
* CHESTER      N/A       54  18  24 W19G31     N/A
* DENTON       N/A       55  20  25 W26G34     N/A
* GEYSER       N/A       50  17  27 SW28G35    N/A
* JUDITH GAP   N/A       50  18  28 W12G22     N/A
* LOMA         N/A       58  20  23 SW32G40    N/A
$$

MTZ017>020-022>027-061-062-151900-
NORTHEAST MONTANA
CITY           SKY/WX    TMP DP  RH WIND       PRES   REMARKS
GLASGOW        PTSUNNY   48  19  32 W5        29.59F
GLENDIVE       PTSUNNY   52  21  30 S3        29.61F
JORDAN         PTCLDY    63  16  16 W18G33    29.59F
SIDNEY         PTCLDY    46  21  37 SE7G16    29.65F
WOLF POINT     CLOUDY    52  19  27 VRB6      29.59F
* BEAVER HILL  N/A       51  19  28 S8G14      N/A
* CIRCLE       N/A       52  24  34 SW9        N/A
* LINDSAY DVD  N/A       55  19  24 W16        N/A
* NAVAJO       N/A       39  16  39 SE12G17    N/A   WCI  32
* SACO         N/A       49  20  32 W4         N/A
$$

MTZ028>042-056>058-151900-
SOUTHCENTRAL AND SOUTHEAST MONTANA
CITY           SKY/WX    TMP DP  RH WIND       PRES   REMARKS
BAKER          PTSUNNY   55  19  24 W8        29.62F
BILLINGS       CLOUDY    55  19  24 SW16G23   29.67F
LIVINGSTON     CLOUDY    48  27  44 SW12G28   29.73S
MILES CITY     PTCLDY    63  19  18 NW16G25   29.60F
* EKALAKA APT  PTCLDY    57  14  18 W14G25    29.65F
* LAUREL APT   CLOUDY    54  21  27 SW11G17    N/A
* ROUNDUP APT  CLOUDY    57  16  20 W21G29     N/A
* HYSHAM       N/A       61  25  25 W13G20     N/A
* LAME DEER    N/A       57  20  24 W18G29     N/A
* REED POINT   N/A       57  28  33 W30G44     N/A
* ROSCOE HILL  N/A       47  11  23 SW12G27    N/A
$$

REGIONAL REPORTS...DAKOTAS
CITY           SKY/WX    TMP DP  RH WIND       PRES   REMARKS
WILLISTON      PTSUNNY   36  27  70 S21       29.68F WCI  25
DICKINSON      PTCLDY    43  18  37 SE21G28   29.66F
CROSBY         SUNNY     36  18  48 SE22      29.72F WCI  25
TIOGA          PTCLDY    32  14  47 SE23G31   29.75F WCI  19
WATFORD CITY   SUNNY     41  18  39 SE16G23   29.65F
BISMARCK       CLOUDY    37  16  42 SE21G28   29.84F WCI  26
GRAND FORKS    PTSUNNY   27  10  49 S8        30.04F WCI  19
FARGO          PTCLDY    28   5  37 SE7       30.08F WCI  21
BUFFALO SD     SUNNY     55  19  24 SW8       29.59F
RAPID CITY     CLOUDY    57  23  27 SE9       29.69F
$$

REGIONAL REPORTS...WYOMING/IDAHO/WASHINGTON
CITY           SKY/WX    TMP DP  RH WIND       PRES   REMARKS
GILLETTE       SUNNY     59  19  21 W14G20    29.70F
SHERIDAN       PTCLDY    59  21  23 S7        29.67F
CODY           CLOUDY    55  19  24 SW12G17   29.72F
YELLOWSTONE LA CLOUDY    37  10  33 VRB6      29.87F WCI  32
SALMON         CLOUDY    50  28  43 N18G25    29.80F
MULLAN PASS    SNOW      28  27  96 VRB7      29.84S VSB M1/4 WCI  21
SAND POINT     CLOUDY    54  28  37 SW10G20   29.84S
SPOKANE        PTSUNNY   54  19  25 W14       29.89S
$$

REGIONAL REPORTS...ALBERTA
CITY           SKY/WX    TMP DP  RH WIND       PRES   REMARKS
CALGARY        CLOUDY    46  16  30 N28G35    29.72R
LETHBRIDGE     CLOUDY    55  19  24 NW18G25   29.65R
MEDICINE HAT   CLOUDY    52  23  32 N12G20    29.59R
EDMONTON       PTSUNNY   43  25  49 N9        29.78R
WATERTON GATE  N/A       46  19  34 W14G22     N/A
CARDSTON       N/A       50  21  32 W13G20     N/A
$$

REGIONAL REPORTS...SASKATCHEWAN
CITY           SKY/WX    TMP DP  RH WIND       PRES   REMARKS
SWIFT CURRENT  PTSUNNY   46  19  34 NE7       29.56R
MOOSE JAW      CLOUDY    39  16  39 SE18G24   29.66F WCI  30
REGINA         CLOUDY    36  19  50 SE26G33   29.71F WCI  24
VAL MARIE      N/A       54  18  24 W6         N/A
ASSINIBOIA     N/A       37  18  46 SE12G17    N/A   WCI  29
CORONACH       N/A       45  18  34 SE8        N/A

$$




USA.gov is the U.S. government's official web portal to all federal, state and local government web resources and services.